This is the latest recevied weather packets stored in our database for station/object KD8BMB. If no packets are shown the sender has not sent any weather packets the latest 1 day(s).
| Time | Temp. | Humidity | Pressure | Rain* | Wind** | Luminosity | Snow |
|---|---|---|---|---|---|---|---|
| 1777986590 | 10° C | 71% | 1004.3 hPa | 0 mm | 0 m/s | 105 W/m² | - |
| 1777986287 | 9.44° C | 71% | 1004.1 hPa | 0 mm | 0 m/s | 80 W/m² | - |
| 1777985985 | 10° C | 70% | 1004.1 hPa | 0 mm | 0.45 m/s, 68° | 72 W/m² | - |
| 1777985682 | 10° C | 70% | 1004.3 hPa | 0 mm | 0.45 m/s, 63° | 60 W/m² | - |
| 1777985378 | 10° C | 70% | 1004.4 hPa | 0 mm | 0.45 m/s, 44° | 81 W/m² | - |
| 1777985075 | 10° C | 69% | 1004.3 hPa | 0 mm | 0.89 m/s, 357° | 94 W/m² | - |
| 1777984771 | 10° C | 70% | 1004 hPa | 0 mm | 0 m/s | 121 W/m² | - |
| 1777984468 | 10° C | 70% | 1004.2 hPa | 0 mm | 0.45 m/s, 77° | 92 W/m² | - |
| 1777984164 | 9.44° C | 70% | 1004.3 hPa | 0 mm | 0.89 m/s, 347° | 125 W/m² | - |
| 1777983862 | 9.44° C | 70% | 1004.2 hPa | 0 mm | 0.45 m/s, 76° | 78 W/m² | - |
| 1777983558 | 9.44° C | 71% | 1004 hPa | 0 mm | 0.45 m/s, 57° | 70 W/m² | - |
| 1777983255 | 9.44° C | 71% | 1003.9 hPa | 0 mm | 0 m/s | 70 W/m² | - |
| 1777982951 | 9.44° C | 71% | 1003.7 hPa | 0 mm | 0 m/s | 37 W/m² | - |
| 1777982647 | 9.44° C | 69% | 1003.7 hPa | 0 mm | 0.45 m/s, 59° | 36 W/m² | - |
| 1777982346 | 9.44° C | 70% | 1003.7 hPa | 0 mm | 0.45 m/s, 68° | 35 W/m² | - |
| 1777982043 | 9.44° C | 70% | 1004 hPa | 0 mm | 1.34 m/s, 352° | 47 W/m² | - |
| 1777981741 | 9.44° C | 70% | 1003.4 hPa | 0 mm | 0.89 m/s, 44° | 59 W/m² | - |
| 1777981437 | 9.44° C | 70% | 1004 hPa | 0 mm | 0.45 m/s, 24° | 26 W/m² | - |
| 1777981134 | 9.44° C | 69% | 1003.5 hPa | 0 mm | 1.34 m/s, 16° | 34 W/m² | - |
| 1777980830 | 10° C | 69% | 1003.5 hPa | 0 mm | 0.89 m/s, 37° | 47 W/m² | - |
| 1777980526 | 9.44° C | 69% | 1003.2 hPa | 0 mm | 0.45 m/s, 75° | 57 W/m² | - |
| 1777980224 | 9.44° C | 71% | 1003.1 hPa | 0 mm | 0 m/s | 50 W/m² | - |
| 1777979920 | 9.44° C | 71% | 1002.9 hPa | 0 mm | 0.89 m/s, 42° | 47 W/m² | - |
| 1777979615 | 8.89° C | 74% | 1002.9 hPa | 0 mm | 0 m/s | 48 W/m² | - |
| 1777979311 | 8.89° C | 76% | 1002.8 hPa | 0 mm | 0.45 m/s, 36° | 37 W/m² | - |
* Rain latest hour (hover to see other rain measurements)
** Current wind speed in m/s (hover to see current wind gust speed)